User: anonymous   Login
Location: Ocean City
(38.3360°N, 75.0850°W)
Time: 08:29:30
(UTC-05:00)
Language:

A-11 Canister half - Orbit

View from above orbital plane
View from above orbital plane
View from above satellite
View from above satellite

Ground track
Ground track

The orbit data is extracted from the following two-line orbital elements,

1    53U 60009E   19316.12660959 -.00000024  00000-0  60075-3 0  9999
2    53  47.2748 212.2651 0097189 155.3617 205.1858 12.17231739641975
Epoch (UTC): 12 November 2019 03:02:19
Eccentricity: 0.0097189
inclination: 47.2748°
perigee height: 1527 km
apogee height: 1682 km
right ascension of ascending node: 212.2651°
argument of perigee: 155.3617°
revolutions per day: 12.17231739
mean anomaly at epoch: 205.1858°
orbit number at epoch: 64197

The dashed part of the orbit path shows where the satellite is in the earth's shadow,  

DLR